Year,Month,Day,Hour,Minute,Value (Times are PST for barometer in hPa)
2018,04,07,00,00,999.15
2018,04,07,00,01,999.11
2018,04,07,00,02,999.02
2018,04,07,00,03,999.05
2018,04,07,00,04,999.12
2018,04,07,00,05,999.09
2018,04,07,00,06,999.09
2018,04,07,00,07,999.05
2018,04,07,00,08,998.99
2018,04,07,00,09,998.99
2018,04,07,00,10,998.95
2018,04,07,00,11,998.92
2018,04,07,00,12,998.92
2018,04,07,00,13,998.92
2018,04,07,00,14,998.91
2018,04,07,00,15,998.78
2018,04,07,00,16,998.77
2018,04,07,00,17,998.65
2018,04,07,00,18,998.68
2018,04,07,00,19,998.71
2018,04,07,00,20,998.71
2018,04,07,00,21,998.61
2018,04,07,00,22,998.54
2018,04,07,00,23,998.51
2018,04,07,00,24,998.51
2018,04,07,00,25,998.48
2018,04,07,00,26,998.44
2018,04,07,00,27,998.47
2018,04,07,00,28,998.41
2018,04,07,00,29,998.41
2018,04,07,00,30,998.38
2018,04,07,00,31,998.38
2018,04,07,00,32,998.30
2018,04,07,00,33,998.23
2018,04,07,00,34,998.17
2018,04,07,00,35,998.14
2018,04,07,00,36,998.14
2018,04,07,00,37,998.07
2018,04,07,00,38,998.04
2018,04,07,00,39,997.94
2018,04,07,00,40,997.91
2018,04,07,00,41,997.97
2018,04,07,00,42,997.94
2018,04,07,00,43,997.90
2018,04,07,00,44,997.87
2018,04,07,00,45,997.87
2018,04,07,00,46,997.86
2018,04,07,00,47,997.80
2018,04,07,00,48,997.70
2018,04,07,00,49,997.56
2018,04,07,00,50,997.50
2018,04,07,00,51,997.46
2018,04,07,00,52,997.46
2018,04,07,00,53,997.46
2018,04,07,00,54,997.39
2018,04,07,00,55,997.33
2018,04,07,00,56,997.36
2018,04,07,00,57,997.36
2018,04,07,00,58,997.35
2018,04,07,00,59,997.29
2018,04,07,01,00,997.26
2018,04,07,01,01,997.19
2018,04,07,01,02,997.16
2018,04,07,01,03,997.12
2018,04,07,01,04,997.05
2018,04,07,01,05,997.09
2018,04,07,01,06,997.05
2018,04,07,01,07,997.05
2018,04,07,01,08,997.02
2018,04,07,01,09,996.99
2018,04,07,01,10,996.89
2018,04,07,01,11,996.85
2018,04,07,01,12,996.84
2018,04,07,01,13,996.78
2018,04,07,01,14,996.78
2018,04,07,01,15,996.78
2018,04,07,01,16,996.75
2018,04,07,01,17,996.72
2018,04,07,01,18,996.74
2018,04,07,01,19,996.68
2018,04,07,01,20,996.61
2018,04,07,01,21,996.65
2018,04,07,01,22,996.58
2018,04,07,01,23,996.58
2018,04,07,01,24,996.58
2018,04,07,01,25,996.58
2018,04,07,01,26,996.51
2018,04,07,01,27,996.45
2018,04,07,01,28,996.41
2018,04,07,01,29,996.41
2018,04,07,01,30,996.41
2018,04,07,01,31,996.45
2018,04,07,01,32,996.34
2018,04,07,01,33,996.41
2018,04,07,01,34,996.31
2018,04,07,01,35,996.31
2018,04,07,01,36,996.31
2018,04,07,01,37,996.28
2018,04,07,01,38,996.23
2018,04,07,01,39,996.14
2018,04,07,01,40,996.10
2018,04,07,01,41,996.01
2018,04,07,01,42,996.01
2018,04,07,01,43,996.01
2018,04,07,01,44,996.01
2018,04,07,01,45,995.97
2018,04,07,01,46,995.97
2018,04,07,01,47,995.94
2018,04,07,01,48,995.84
2018,04,07,01,49,995.77
2018,04,07,01,50,995.63
2018,04,07,01,51,995.59
2018,04,07,01,52,995.50
2018,04,07,01,53,995.40
2018,04,07,01,54,995.33
2018,04,07,01,55,995.26
2018,04,07,01,56,995.19
2018,04,07,01,57,995.16
2018,04,07,01,58,995.16
2018,04,07,01,59,995.19
2018,04,07,02,00,995.16
2018,04,07,02,01,995.12
2018,04,07,02,02,995.12
2018,04,07,02,03,995.19
2018,04,07,02,04,995.19
2018,04,07,02,05,995.19
2018,04,07,02,06,995.23
2018,04,07,02,07,995.18
2018,04,07,02,08,995.12
2018,04,07,02,09,995.09
2018,04,07,02,10,995.09
2018,04,07,02,11,995.06
2018,04,07,02,12,994.99
2018,04,07,02,13,994.92
2018,04,07,02,14,994.96
2018,04,07,02,15,994.82
2018,04,07,02,16,994.75
2018,04,07,02,17,994.72
2018,04,07,02,18,994.68
2018,04,07,02,19,994.62
2018,04,07,02,20,994.58
2018,04,07,02,21,994.55
2018,04,07,02,22,994.47
2018,04,07,02,23,994.41
2018,04,07,02,24,994.37
2018,04,07,02,25,994.23
2018,04,07,02,26,994.07
2018,04,07,02,27,994.07
2018,04,07,02,28,994.04
2018,04,07,02,29,994.01
2018,04,07,02,30,993.97
2018,04,07,02,31,994.04
2018,04,07,02,32,994.03
2018,04,07,02,33,993.97
2018,04,07,02,34,993.96
2018,04,07,02,35,993.84
2018,04,07,02,36,993.77
2018,04,07,02,37,993.67
2018,04,07,02,38,993.59
2018,04,07,02,39,993.50
2018,04,07,02,40,993.46
2018,04,07,02,41,993.36
2018,04,07,02,42,993.33
2018,04,07,02,43,993.30
2018,04,07,02,44,993.33
2018,04,07,02,45,993.33
2018,04,07,02,46,993.26
2018,04,07,02,47,993.30
2018,04,07,02,48,993.26
2018,04,07,02,49,993.18
2018,04,07,02,50,993.06
2018,04,07,02,51,992.99
2018,04,07,02,52,992.89
2018,04,07,02,53,992.74
2018,04,07,02,54,992.58
2018,04,07,02,55,992.55
2018,04,07,02,56,992.55
2018,04,07,02,57,992.45
2018,04,07,02,58,992.45
2018,04,07,02,59,992.38
2018,04,07,03,00,992.38
2018,04,07,03,01,992.45
2018,04,07,03,02,992.45
2018,04,07,03,03,992.58
2018,04,07,03,04,992.56
2018,04,07,03,05,992.72
2018,04,07,03,06,992.72
2018,04,07,03,07,992.65
2018,04,07,03,08,992.65
2018,04,07,03,09,992.72
2018,04,07,03,10,992.75
2018,04,07,03,11,992.86
2018,04,07,03,12,992.89
2018,04,07,03,13,992.86
2018,04,07,03,14,992.83
2018,04,07,03,15,992.90
2018,04,07,03,16,993.06
2018,04,07,03,17,992.99
2018,04,07,03,18,992.89
2018,04,07,03,19,992.75
2018,04,07,03,20,992.74
2018,04,07,03,21,992.66
2018,04,07,03,22,992.72
2018,04,07,03,23,992.75
2018,04,07,03,24,992.69
2018,04,07,03,25,992.72
2018,04,07,03,26,992.72
2018,04,07,03,27,992.76
2018,04,07,03,28,992.82
2018,04,07,03,29,992.75
2018,04,07,03,30,992.68
2018,04,07,03,31,992.62
2018,04,07,03,32,992.58
2018,04,07,03,33,992.55
2018,04,07,03,34,992.55
2018,04,07,03,35,992.48
2018,04,07,03,36,992.55
2018,04,07,03,37,992.45
2018,04,07,03,38,992.35
2018,04,07,03,39,992.27
2018,04,07,03,40,992.17
2018,04,07,03,41,992.04
2018,04,07,03,42,992.01
2018,04,07,03,43,992.01
2018,04,07,03,44,991.98
2018,04,07,03,45,991.94
2018,04,07,03,46,991.98
2018,04,07,03,47,992.01
2018,04,07,03,48,991.98
2018,04,07,03,49,991.94
2018,04,07,03,50,991.87
2018,04,07,03,51,991.77
2018,04,07,03,52,991.73
2018,04,07,03,53,991.64
2018,04,07,03,54,991.64
2018,04,07,03,55,991.64
2018,04,07,03,56,991.64
2018,04,07,03,57,991.67
2018,04,07,03,58,991.67
2018,04,07,03,59,991.74
2018,04,07,04,00,991.74
2018,04,07,04,01,991.74
2018,04,07,04,02,991.69
2018,04,07,04,03,991.57
2018,04,07,04,04,991.53
2018,04,07,04,05,991.47
2018,04,07,04,06,991.43
2018,04,07,04,07,991.50
2018,04,07,04,08,991.57
2018,04,07,04,09,991.60
2018,04,07,04,10,991.64
2018,04,07,04,11,991.52
2018,04,07,04,12,991.37
2018,04,07,04,13,991.40
2018,04,07,04,14,991.33
2018,04,07,04,15,991.23
2018,04,07,04,16,991.16
2018,04,07,04,17,991.13
2018,04,07,04,18,991.03
2018,04,07,04,19,990.96
2018,04,07,04,20,990.93
2018,04,07,04,21,990.89
2018,04,07,04,22,990.90
2018,04,07,04,23,991.06
2018,04,07,04,24,991.06
2018,04,07,04,25,991.09
2018,04,07,04,26,991.20
2018,04,07,04,27,991.13
2018,04,07,04,28,991.06
2018,04,07,04,29,991.09
2018,04,07,04,30,991.06
2018,04,07,04,31,991.03
2018,04,07,04,32,991.06
2018,04,07,04,33,991.16
2018,04,07,04,34,991.13
2018,04,07,04,35,991.14
2018,04,07,04,36,991.30
2018,04,07,04,37,991.34
2018,04,07,04,38,991.40
2018,04,07,04,39,991.37
2018,04,07,04,40,991.33
2018,04,07,04,41,991.26
2018,04,07,04,42,991.37
2018,04,07,04,43,991.37
2018,04,07,04,44,991.43
2018,04,07,04,45,991.47
2018,04,07,04,46,991.53
2018,04,07,04,47,991.60
2018,04,07,04,48,991.70
2018,04,07,04,49,991.67
2018,04,07,04,50,991.69
2018,04,07,04,51,991.60
2018,04,07,04,52,991.53
2018,04,07,04,53,991.50
2018,04,07,04,54,991.50
2018,04,07,04,55,991.47
2018,04,07,04,56,991.47
2018,04,07,04,57,991.50
2018,04,07,04,58,991.43
2018,04,07,04,59,991.37
2018,04,07,05,00,991.33
2018,04,07,05,01,991.37
2018,04,07,05,02,991.33
2018,04,07,05,03,991.26
2018,04,07,05,04,991.33
2018,04,07,05,05,991.33
2018,04,07,05,06,991.26
2018,04,07,05,07,991.31
2018,04,07,05,08,991.49
2018,04,07,05,09,991.30
2018,04,07,05,10,991.30
2018,04,07,05,11,991.40
2018,04,07,05,12,991.46
2018,04,07,05,13,991.30
2018,04,07,05,14,991.33
2018,04,07,05,15,991.25
2018,04,07,05,16,991.06
2018,04,07,05,17,991.16
2018,04,07,05,18,991.25
2018,04,07,05,19,990.93
2018,04,07,05,20,991.06
2018,04,07,05,21,991.14
2018,04,07,05,22,991.21
2018,04,07,05,23,991.33
2018,04,07,05,24,991.36
2018,04,07,05,25,991.20
2018,04,07,05,26,991.33
2018,04,07,05,27,991.37
2018,04,07,05,28,991.33
2018,04,07,05,29,991.20
2018,04,07,05,30,991.16
2018,04,07,05,31,991.30
2018,04,07,05,32,991.33
2018,04,07,05,33,991.32
2018,04,07,05,34,991.16
2018,04,07,05,35,991.23
2018,04,07,05,36,991.23
2018,04,07,05,37,991.33
2018,04,07,05,38,991.23
2018,04,07,05,39,991.34
2018,04,07,05,40,991.48
2018,04,07,05,41,991.57
2018,04,07,05,42,991.57
2018,04,07,05,43,991.60
2018,04,07,05,44,991.67
2018,04,07,05,45,991.74
2018,04,07,05,46,991.81
2018,04,07,05,47,991.91
2018,04,07,05,48,991.92
2018,04,07,05,49,992.08
2018,04,07,05,50,992.02
2018,04,07,05,51,992.18
2018,04,07,05,52,992.25
2018,04,07,05,53,992.25
2018,04,07,05,54,992.21
2018,04,07,05,55,992.21
2018,04,07,05,56,992.18
2018,04,07,05,57,992.25
2018,04,07,05,58,992.21
2018,04,07,05,59,992.21
2018,04,07,06,00,992.18
2018,04,07,06,01,992.25
2018,04,07,06,02,992.21
2018,04,07,06,03,992.18
2018,04,07,06,04,992.18
2018,04,07,06,05,992.18
2018,04,07,06,06,992.21
2018,04,07,06,07,992.17
2018,04,07,06,08,992.04
2018,04,07,06,09,991.97
2018,04,07,06,10,991.80
2018,04,07,06,11,991.57
2018,04,07,06,12,991.44
2018,04,07,06,13,991.65
2018,04,07,06,14,991.84
2018,04,07,06,15,991.91
2018,04,07,06,16,991.87
2018,04,07,06,17,991.83
2018,04,07,06,18,991.74
2018,04,07,06,19,991.77
2018,04,07,06,20,991.70
2018,04,07,06,21,991.63
2018,04,07,06,22,991.47
2018,04,07,06,23,991.33
2018,04,07,06,24,991.23
2018,04,07,06,25,991.13
2018,04,07,06,26,991.06
2018,04,07,06,27,990.95
2018,04,07,06,28,990.64
2018,04,07,06,29,990.44
2018,04,07,06,30,990.24
2018,04,07,06,31,990.08
2018,04,07,06,32,990.02
2018,04,07,06,33,990.11
2018,04,07,06,34,990.25
2018,04,07,06,35,990.33
2018,04,07,06,36,990.49
2018,04,07,06,37,990.59
2018,04,07,06,38,990.65
2018,04,07,06,39,990.69
2018,04,07,06,40,990.76
2018,04,07,06,41,990.82
2018,04,07,06,42,990.89
2018,04,07,06,43,990.86
2018,04,07,06,44,990.82
2018,04,07,06,45,990.82
2018,04,07,06,46,990.81
2018,04,07,06,47,990.65
2018,04,07,06,48,990.55
2018,04,07,06,49,990.52
2018,04,07,06,50,990.45
2018,04,07,06,51,990.55
2018,04,07,06,52,990.59
2018,04,07,06,53,990.62
2018,04,07,06,54,990.72
2018,04,07,06,55,990.83
2018,04,07,06,56,990.90
2018,04,07,06,57,991.03
2018,04,07,06,58,991.13
2018,04,07,06,59,991.15
2018,04,07,07,00,990.96
2018,04,07,07,01,990.68
2018,04,07,07,02,990.48
2018,04,07,07,03,990.32
2018,04,07,07,04,990.32
2018,04,07,07,05,990.32
2018,04,07,07,06,990.42
2018,04,07,07,07,990.55
2018,04,07,07,08,990.69
2018,04,07,07,09,990.72
2018,04,07,07,10,990.76
2018,04,07,07,11,990.83
2018,04,07,07,12,990.89
2018,04,07,07,13,990.99
2018,04,07,07,14,991.07
2018,04,07,07,15,991.26
2018,04,07,07,16,991.26
2018,04,07,07,17,991.33
2018,04,07,07,18,991.26
2018,04,07,07,19,991.22
2018,04,07,07,20,991.09
2018,04,07,07,21,991.09
2018,04,07,07,22,991.03
2018,04,07,07,23,991.13
2018,04,07,07,24,991.16
2018,04,07,07,25,991.20
2018,04,07,07,26,991.26
2018,04,07,07,27,991.33
2018,04,07,07,28,991.33
2018,04,07,07,29,991.26
2018,04,07,07,30,991.13
2018,04,07,07,31,991.03
2018,04,07,07,32,991.03
2018,04,07,07,33,991.03
2018,04,07,07,34,991.14
2018,04,07,07,35,991.20
2018,04,07,07,36,991.23
2018,04,07,07,37,991.23
2018,04,07,07,38,991.33
2018,04,07,07,39,991.37
2018,04,07,07,40,991.37
2018,04,07,07,41,991.37
2018,04,07,07,42,991.33
2018,04,07,07,43,991.33
2018,04,07,07,44,991.33
2018,04,07,07,45,991.34
2018,04,07,07,46,991.50
2018,04,07,07,47,991.57
2018,04,07,07,48,991.64
2018,04,07,07,49,991.70
2018,04,07,07,50,991.64
2018,04,07,07,51,991.74
2018,04,07,07,52,991.77
2018,04,07,07,53,991.70
2018,04,07,07,54,991.64
2018,04,07,07,55,991.64
2018,04,07,07,56,991.60
2018,04,07,07,57,991.60
2018,04,07,07,58,991.50
2018,04,07,07,59,991.50
2018,04,07,08,00,991.53
2018,04,07,08,01,991.53
2018,04,07,08,02,991.53
2018,04,07,08,03,991.67
2018,04,07,08,04,991.81
2018,04,07,08,05,991.94
2018,04,07,08,06,991.98
2018,04,07,08,07,991.98
2018,04,07,08,08,991.94
2018,04,07,08,09,991.91
2018,04,07,08,10,991.87
2018,04,07,08,11,991.92
2018,04,07,08,12,992.01
2018,04,07,08,13,992.08
2018,04,07,08,14,992.08
2018,04,07,08,15,992.11
2018,04,07,08,16,992.08
2018,04,07,08,17,991.98
2018,04,07,08,18,992.01
2018,04,07,08,19,991.98
2018,04,07,08,20,991.98
2018,04,07,08,21,991.98
2018,04,07,08,22,992.01
2018,04,07,08,23,992.04
2018,04,07,08,24,992.01
2018,04,07,08,25,992.11
2018,04,07,08,26,992.18
2018,04,07,08,27,992.25
2018,04,07,08,28,992.28
2018,04,07,08,29,992.28
2018,04,07,08,30,992.28
2018,04,07,08,31,992.31
2018,04,07,08,32,992.25
2018,04,07,08,33,992.28
2018,04,07,08,34,992.25
2018,04,07,08,35,992.21
2018,04,07,08,36,992.14
2018,04,07,08,37,992.14
2018,04,07,08,38,992.18
2018,04,07,08,39,992.18
2018,04,07,08,40,992.22
2018,04,07,08,41,992.35
2018,04,07,08,42,992.42
2018,04,07,08,43,992.48
2018,04,07,08,44,992.42
2018,04,07,08,45,992.42
2018,04,07,08,46,992.35
2018,04,07,08,47,992.38
2018,04,07,08,48,992.38
2018,04,07,08,49,992.35
2018,04,07,08,50,992.35
2018,04,07,08,51,992.38
2018,04,07,08,52,992.35
2018,04,07,08,53,992.38
2018,04,07,08,54,992.28
2018,04,07,08,55,992.31
2018,04,07,08,56,992.28
2018,04,07,08,57,992.31
2018,04,07,08,58,992.31
2018,04,07,08,59,992.35
2018,04,07,09,00,992.31
2018,04,07,09,01,992.25
2018,04,07,09,02,992.18
2018,04,07,09,03,992.08
2018,04,07,09,04,991.98
2018,04,07,09,05,991.91
2018,04,07,09,06,991.91
2018,04,07,09,07,991.94
2018,04,07,09,08,992.01
2018,04,07,09,09,992.08
2018,04,07,09,10,992.04
2018,04,07,09,11,992.08
2018,04,07,09,12,992.15
2018,04,07,09,13,992.32
2018,04,07,09,14,992.45
2018,04,07,09,15,992.55
2018,04,07,09,16,992.58
2018,04,07,09,17,992.62
2018,04,07,09,18,992.58
2018,04,07,09,19,992.55
2018,04,07,09,20,992.55
2018,04,07,09,21,992.52
2018,04,07,09,22,992.42
2018,04,07,09,23,992.42
2018,04,07,09,24,992.35
2018,04,07,09,25,992.32
2018,04,07,09,26,992.45
2018,04,07,09,27,992.48
2018,04,07,09,28,992.52
2018,04,07,09,29,992.52
2018,04,07,09,30,992.52
2018,04,07,09,31,992.55
2018,04,07,09,32,992.42
2018,04,07,09,33,992.35
2018,04,07,09,34,992.42
2018,04,07,09,35,992.55
2018,04,07,09,36,992.65
2018,04,07,09,37,992.65
2018,04,07,09,38,992.75
2018,04,07,09,39,992.79
2018,04,07,09,40,992.75
2018,04,07,09,41,992.72
2018,04,07,09,42,992.69
2018,04,07,09,43,992.62
2018,04,07,09,44,992.65
2018,04,07,09,45,992.62
2018,04,07,09,46,992.65
2018,04,07,09,47,992.62
2018,04,07,09,48,992.55
2018,04,07,09,49,992.48
2018,04,07,09,50,992.45
2018,04,07,09,51,992.38
2018,04,07,09,52,992.31
2018,04,07,09,53,992.31
2018,04,07,09,54,992.28
2018,04,07,09,55,992.28
2018,04,07,09,56,992.28
2018,04,07,09,57,992.39
2018,04,07,09,58,992.52
2018,04,07,09,59,992.55
2018,04,07,10,00,992.55
2018,04,07,10,01,992.58
2018,04,07,10,02,992.55
2018,04,07,10,03,992.55
2018,04,07,10,04,992.48
2018,04,07,10,05,992.38
2018,04,07,10,06,992.31
2018,04,07,10,07,992.28
2018,04,07,10,08,992.22
2018,04,07,10,09,992.35
2018,04,07,10,10,992.38
2018,04,07,10,11,992.38
2018,04,07,10,12,992.42
2018,04,07,10,13,992.38
2018,04,07,10,14,992.35
2018,04,07,10,15,992.35
2018,04,07,10,16,992.42
2018,04,07,10,17,992.42
2018,04,07,10,18,992.45
2018,04,07,10,19,992.35
2018,04,07,10,20,992.35
2018,04,07,10,21,992.35
2018,04,07,10,22,992.31
2018,04,07,10,23,992.31
2018,04,07,10,24,992.31
2018,04,07,10,25,992.31
2018,04,07,10,26,992.31
2018,04,07,10,27,992.35
2018,04,07,10,28,992.35
2018,04,07,10,29,992.35
2018,04,07,10,30,992.35
2018,04,07,10,31,992.42
2018,04,07,10,32,992.45
2018,04,07,10,33,992.45
2018,04,07,10,34,992.52
2018,04,07,10,35,992.48
2018,04,07,10,36,992.52
2018,04,07,10,37,992.52
2018,04,07,10,38,992.52
2018,04,07,10,39,992.45
2018,04,07,10,40,992.52
2018,04,07,10,41,992.52
2018,04,07,10,42,992.55
2018,04,07,10,43,992.62
2018,04,07,10,44,992.58
2018,04,07,10,45,992.58
2018,04,07,10,46,992.55
2018,04,07,10,47,992.55
2018,04,07,10,48,992.52
2018,04,07,10,49,992.52
2018,04,07,10,50,992.52
2018,04,07,10,51,992.52
2018,04,07,10,52,992.52
2018,04,07,10,53,992.52
2018,04,07,10,54,992.58
2018,04,07,10,55,992.58
2018,04,07,10,56,992.58
2018,04,07,10,57,992.58
2018,04,07,10,58,992.58
2018,04,07,10,59,992.62
2018,04,07,11,00,992.69
2018,04,07,11,01,992.75
2018,04,07,11,02,992.79
2018,04,07,11,03,992.82
2018,04,07,11,04,992.86
2018,04,07,11,05,992.89
2018,04,07,11,06,992.89
2018,04,07,11,07,992.89
2018,04,07,11,08,992.82
2018,04,07,11,09,992.75
2018,04,07,11,10,992.72
2018,04,07,11,11,992.69
2018,04,07,11,12,992.72
2018,04,07,11,13,992.75
2018,04,07,11,14,992.75
2018,04,07,11,15,992.75
2018,04,07,11,16,992.72
2018,04,07,11,17,992.69
2018,04,07,11,18,992.65
2018,04,07,11,19,992.65
2018,04,07,11,20,992.75
2018,04,07,11,21,992.72
2018,04,07,11,22,992.69
2018,04,07,11,23,992.69
2018,04,07,11,24,992.65
2018,04,07,11,25,992.62
2018,04,07,11,26,992.62
2018,04,07,11,27,992.55
2018,04,07,11,28,992.58
2018,04,07,11,29,992.52
2018,04,07,11,30,992.55
2018,04,07,11,31,992.58
2018,04,07,11,32,992.55
2018,04,07,11,33,992.58
2018,04,07,11,34,992.58
2018,04,07,11,35,992.58
2018,04,07,11,36,992.58
2018,04,07,11,37,992.55
2018,04,07,11,38,992.55
2018,04,07,11,39,992.55
2018,04,07,11,40,992.58
2018,04,07,11,41,992.58
2018,04,07,11,42,992.58
2018,04,07,11,43,992.62
2018,04,07,11,44,992.62
2018,04,07,11,45,992.65
2018,04,07,11,46,992.62
2018,04,07,11,47,992.69
2018,04,07,11,48,992.72
2018,04,07,11,49,992.79
2018,04,07,11,50,992.79
2018,04,07,11,51,992.82
2018,04,07,11,52,992.86
2018,04,07,11,53,992.86
2018,04,07,11,54,992.79
2018,04,07,11,55,992.86
2018,04,07,11,56,992.82
2018,04,07,11,57,992.79
2018,04,07,11,58,992.79
2018,04,07,11,59,992.82
2018,04,07,12,00,992.82
2018,04,07,12,01,992.82
2018,04,07,12,02,992.79
2018,04,07,12,03,992.75
2018,04,07,12,04,992.72
2018,04,07,12,05,992.72
2018,04,07,12,06,992.69
2018,04,07,12,07,992.65
2018,04,07,12,08,992.69
2018,04,07,12,09,992.65
2018,04,07,12,10,992.65
2018,04,07,12,11,992.62
2018,04,07,12,12,992.62
2018,04,07,12,13,992.62
2018,04,07,12,14,992.58
2018,04,07,12,15,992.58
2018,04,07,12,16,992.58
2018,04,07,12,17,992.55
2018,04,07,12,18,992.52
2018,04,07,12,19,992.52
2018,04,07,12,20,992.55
2018,04,07,12,21,992.58
2018,04,07,12,22,992.62
2018,04,07,12,23,992.62
2018,04,07,12,24,992.65
2018,04,07,12,25,992.62
2018,04,07,12,26,992.58
2018,04,07,12,27,992.55
2018,04,07,12,28,992.55
2018,04,07,12,29,992.58
2018,04,07,12,30,992.55
2018,04,07,12,31,992.58
2018,04,07,12,32,992.58
2018,04,07,12,33,992.62
2018,04,07,12,34,992.62
2018,04,07,12,35,992.62
2018,04,07,12,36,992.69
2018,04,07,12,37,992.69
2018,04,07,12,38,992.72
2018,04,07,12,39,992.69
2018,04,07,12,40,992.75
2018,04,07,12,41,992.82
2018,04,07,12,42,992.82
2018,04,07,12,43,992.82
2018,04,07,12,44,992.86
2018,04,07,12,45,992.89
2018,04,07,12,46,992.92
2018,04,07,12,47,992.89
2018,04,07,12,48,992.89
2018,04,07,12,49,992.92
2018,04,07,12,50,992.96
2018,04,07,12,51,992.96
2018,04,07,12,52,992.99
2018,04,07,12,53,992.99
2018,04,07,12,54,993.03
2018,04,07,12,55,993.06
2018,04,07,12,56,993.06
2018,04,07,12,57,993.06
2018,04,07,12,58,993.16
2018,04,07,12,59,993.19
2018,04,07,13,00,993.13
2018,04,07,13,01,993.19
2018,04,07,13,02,993.13
2018,04,07,13,03,993.09
2018,04,07,13,04,993.09
2018,04,07,13,05,993.09
2018,04,07,13,06,993.09
2018,04,07,13,07,993.09
2018,04,07,13,08,993.09
2018,04,07,13,09,993.03
2018,04,07,13,10,992.99
2018,04,07,13,11,992.96
2018,04,07,13,12,992.96
2018,04,07,13,13,992.96
2018,04,07,13,14,992.96
2018,04,07,13,15,992.92
2018,04,07,13,16,992.89
2018,04,07,13,17,992.89
2018,04,07,13,18,992.86
2018,04,07,13,19,992.82
2018,04,07,13,20,992.89
2018,04,07,13,21,992.89
2018,04,07,13,22,992.89
2018,04,07,13,23,992.89
2018,04,07,13,24,992.92
2018,04,07,13,25,992.96
2018,04,07,13,26,992.96
2018,04,07,13,27,992.99
2018,04,07,13,28,992.96
2018,04,07,13,29,992.96
2018,04,07,13,30,992.96
2018,04,07,13,31,992.99
2018,04,07,13,32,992.96
2018,04,07,13,33,992.99
2018,04,07,13,34,993.03
2018,04,07,13,35,992.92
2018,04,07,13,36,992.99
2018,04,07,13,37,992.92
2018,04,07,13,38,992.92
2018,04,07,13,39,992.89
2018,04,07,13,40,992.92
2018,04,07,13,41,992.89
2018,04,07,13,42,992.92
2018,04,07,13,43,992.89
2018,04,07,13,44,992.86
2018,04,07,13,45,992.89
2018,04,07,13,46,992.89
2018,04,07,13,47,992.92
2018,04,07,13,48,992.92
2018,04,07,13,49,992.99
2018,04,07,13,50,992.92
2018,04,07,13,51,992.92
2018,04,07,13,52,992.92
2018,04,07,13,53,992.92
2018,04,07,13,54,992.89
2018,04,07,13,55,992.82
2018,04,07,13,56,992.79
2018,04,07,13,57,992.79
2018,04,07,13,58,992.75
2018,04,07,13,59,992.69
2018,04,07,14,00,992.69
2018,04,07,14,01,992.65
2018,04,07,14,02,992.62
2018,04,07,14,03,992.69
2018,04,07,14,04,992.65
2018,04,07,14,05,992.58
2018,04,07,14,06,992.62
2018,04,07,14,07,992.65
2018,04,07,14,08,992.62
2018,04,07,14,09,992.55
2018,04,07,14,10,992.55
2018,04,07,14,11,992.55
2018,04,07,14,12,992.58
2018,04,07,14,13,992.62
2018,04,07,14,14,992.65
2018,04,07,14,15,992.65
2018,04,07,14,16,992.69
2018,04,07,14,17,992.72
2018,04,07,14,18,992.69
2018,04,07,14,19,992.65
2018,04,07,14,20,992.65
2018,04,07,14,21,992.72
2018,04,07,14,22,992.72
2018,04,07,14,23,992.69
2018,04,07,14,24,992.69
2018,04,07,14,25,992.72
2018,04,07,14,26,992.72
2018,04,07,14,27,992.69
2018,04,07,14,28,992.72
2018,04,07,14,29,992.72
2018,04,07,14,30,992.69
2018,04,07,14,31,992.69
2018,04,07,14,32,992.69
2018,04,07,14,33,992.72
2018,04,07,14,34,992.75
2018,04,07,14,35,992.75
2018,04,07,14,36,992.75
2018,04,07,14,37,992.72
2018,04,07,14,38,992.69
2018,04,07,14,39,992.65
2018,04,07,14,40,992.65
2018,04,07,14,41,992.58
2018,04,07,14,42,992.65
2018,04,07,14,43,992.65
2018,04,07,14,44,992.69
2018,04,07,14,45,992.69
2018,04,07,14,46,992.72
2018,04,07,14,47,992.82
2018,04,07,14,48,992.79
2018,04,07,14,49,992.86
2018,04,07,14,50,992.82
2018,04,07,14,51,992.86
2018,04,07,14,52,992.86
2018,04,07,14,53,992.79
2018,04,07,14,54,992.79
2018,04,07,14,55,992.79
2018,04,07,14,56,992.82
2018,04,07,14,57,992.82
2018,04,07,14,58,992.79
2018,04,07,14,59,992.82
2018,04,07,15,00,992.82
2018,04,07,15,01,992.82
2018,04,07,15,02,992.82
2018,04,07,15,03,992.82
2018,04,07,15,04,992.89
2018,04,07,15,05,992.92
2018,04,07,15,06,992.96
2018,04,07,15,07,992.96
2018,04,07,15,08,993.03
2018,04,07,15,09,992.92
2018,04,07,15,10,992.99
2018,04,07,15,11,992.99
2018,04,07,15,12,992.96
2018,04,07,15,13,992.96
2018,04,07,15,14,992.96
2018,04,07,15,15,992.96
2018,04,07,15,16,992.96
2018,04,07,15,17,992.96
2018,04,07,15,18,992.96
2018,04,07,15,19,992.89
2018,04,07,15,20,992.89
2018,04,07,15,21,992.89
2018,04,07,15,22,992.75
2018,04,07,15,23,992.79
2018,04,07,15,24,992.82
2018,04,07,15,25,992.75
2018,04,07,15,26,992.75
2018,04,07,15,27,992.79
2018,04,07,15,28,992.82
2018,04,07,15,29,992.82
2018,04,07,15,30,992.79
2018,04,07,15,31,992.82
2018,04,07,15,32,992.89
2018,04,07,15,33,992.89
2018,04,07,15,34,992.86
2018,04,07,15,35,992.86
2018,04,07,15,36,992.82
2018,04,07,15,37,992.86
2018,04,07,15,38,992.82
2018,04,07,15,39,992.75
2018,04,07,15,40,992.86
2018,04,07,15,41,992.86
2018,04,07,15,42,992.89
2018,04,07,15,43,992.96
2018,04,07,15,44,992.99
2018,04,07,15,45,993.03
2018,04,07,15,46,992.99
2018,04,07,15,47,992.99
2018,04,07,15,48,993.06
2018,04,07,15,49,992.99
2018,04,07,15,50,992.99
2018,04,07,15,51,993.09
2018,04,07,15,52,993.09
2018,04,07,15,53,993.06
2018,04,07,15,54,993.06
2018,04,07,15,55,993.13
2018,04,07,15,56,993.13
2018,04,07,15,57,993.13
2018,04,07,15,58,993.16
2018,04,07,15,59,993.06
2018,04,07,16,00,993.09
2018,04,07,16,01,993.13
2018,04,07,16,02,993.13
2018,04,07,16,03,993.13
2018,04,07,16,04,993.16
2018,04,07,16,05,993.16
2018,04,07,16,06,993.23
2018,04,07,16,07,993.19
2018,04,07,16,08,993.23
2018,04,07,16,09,993.26
2018,04,07,16,10,993.23
2018,04,07,16,11,993.26
2018,04,07,16,12,993.23
2018,04,07,16,13,993.19
2018,04,07,16,14,993.26
2018,04,07,16,15,993.26
2018,04,07,16,16,993.26
2018,04,07,16,17,993.26
2018,04,07,16,18,993.26
2018,04,07,16,19,993.26
2018,04,07,16,20,993.30
2018,04,07,16,21,993.33
2018,04,07,16,22,993.30
2018,04,07,16,23,993.36
2018,04,07,16,24,993.30
2018,04,07,16,25,993.33
2018,04,07,16,26,993.33
2018,04,07,16,27,993.30
2018,04,07,16,28,993.33
2018,04,07,16,29,993.30
2018,04,07,16,30,993.23
2018,04,07,16,31,993.23
2018,04,07,16,32,993.19
2018,04,07,16,33,993.16
2018,04,07,16,34,993.19
2018,04,07,16,35,993.23
2018,04,07,16,36,993.26